STARLINK-11297 [DTC]

Last updated on Mon Oct 14 2024 00:02:03 GMT+0000 (Coordinated Universal Time)

1 61060U 24164L 24287.38906352 -.00002910 00000+0 -19163-4 0 9996 2 61060 53.1575 316.9247 0000973 98.1003 262.0125 15.69723648 4950
UTC large
Height (km)
Speed (km/s)
/
Latitude / Longitude
Inclination (degrees)
Orbital Period (minutes)
Azimuth
Elevation
Range (km)
Doppler Factor

Next 0 passes for location: London (51.5072 / 0.1276)

Sorry there are no passes over London.